• In Hungary
  • List of Countries
  • For 7 days
  • Water Temperature
  • Satellite Maps
  • Weather Map
  • News
  • Weather Widgets
  • user-avatar
    Login

    Hourly Weather Ososovo

    Today, 23 October, Tuesday

    Time Temperature Precipitation Wind Pressure Humidity
    00:00 +5°C° 0.3 mm 3 mps 733 mmHg 90%
    01:00 +5°C° 0.3 mm 3 mps 732 mmHg 90%
    02:00 +5°C° 0 mm 3 mps 732 mmHg 91%
    03:00 +4°C° 0 mm 3 mps 731 mmHg 91%
    04:00 +4°C° 0 mm 3 mps 731 mmHg 91%
    05:00 +3°C° 0 mm 3 mps 731 mmHg 92%
    06:00 +4°C° 0 mm 2 mps 731 mmHg 92%
    07:00 +4°C° 0 mm 2 mps 730 mmHg 92%
    08:00 +3°C° 0 mm 2 mps 730 mmHg 92%
    09:00 +4°C° 0 mm 2 mps 730 mmHg 89%
    10:00 +3°C° 0 mm 3 mps 729 mmHg 85%
    11:00 +4°C° 0 mm 3 mps 728 mmHg 82%
    12:00 +4°C° 0 mm 3 mps 727 mmHg 78%
    13:00 +5°C° 0 mm 3 mps 727 mmHg 75%
    14:00 +5°C° 0 mm 4 mps 726 mmHg 71%
    15:00 +4°C° 0 mm 3 mps 725 mmHg 74%
    16:00 +4°C° 0 mm 3 mps 724 mmHg 76%
    17:00 +3°C° 0 mm 3 mps 723 mmHg 79%
    18:00 +3°C° 0 mm 3 mps 722 mmHg 79%
    19:00 +3°C° 0 mm 4 mps 721 mmHg 79%
    20:00 +3°C° 0 mm 4 mps 720 mmHg 80%
    21:00 +3°C° 0.2 mm 4 mps 719 mmHg 80%
    22:00 +3°C° 0.2 mm 4 mps 718 mmHg 81%
    23:00 +3°C° 0.2 mm 4 mps 717 mmHg 81%

    Tomorrow, 24 October, Wednesday

    Time Temperature Precipitation Wind Pressure Humidity
    00:00 +3°C° 0.3 mm 4 mps 717 mmHg 81%
    01:00 +3°C° 0.3 mm 4 mps 716 mmHg 82%
    02:00 +3°C° 0.3 mm 4 mps 715 mmHg 82%
    03:00 +3°C° 0.4 mm 4 mps 714 mmHg 83%
    04:00 +3°C° 0.4 mm 4 mps 714 mmHg 84%
    05:00 +3°C° 0.4 mm 4 mps 713 mmHg 84%
    06:00 +3°C° 0.3 mm 4 mps 713 mmHg 85%
    07:00 +3°C° 0.3 mm 3 mps 713 mmHg 85%
    08:00 +3°C° 0.3 mm 3 mps 713 mmHg 86%
    09:00 +3°C° 0.2 mm 3 mps 713 mmHg 85%
    10:00 +4°C° 0.2 mm 3 mps 713 mmHg 84%
    11:00 +4°C° 0.2 mm 3 mps 713 mmHg 83%
    12:00 +4°C° 0.3 mm 3 mps 714 mmHg 84%
    13:00 +4°C° 0.3 mm 3 mps 714 mmHg 84%
    14:00 +5°C° 0.3 mm 2 mps 714 mmHg 84%
    15:00 +5°C° 0.3 mm 2 mps 714 mmHg 85%
    16:00 +4°C° 0.3 mm 3 mps 715 mmHg 86%
    17:00 +3°C° 0.3 mm 3 mps 715 mmHg 87%
    18:00 +3°C° 0.3 mm 3 mps 716 mmHg 87%
    19:00 +3°C° 0.3 mm 3 mps 716 mmHg 87%
    20:00 +3°C° 0.3 mm 3 mps 716 mmHg 87%
    21:00 +3°C° 0.1 mm 3 mps 716 mmHg 88%
    22:00 +1°C° 0.1 mm 4 mps 717 mmHg 88%
    23:00 +1°C° 0.1 mm 4 mps 717 mmHg 89%

    Day after tomorrow, 25 October, Thursday

    Time Temperature Precipitation Wind Pressure Humidity
    00:00 +1°C° 0 mm 4 mps 717 mmHg 88%
    01:00 +1°C° 0 mm 4 mps 718 mmHg 88%
    02:00 +1°C° 0 mm 4 mps 718 mmHg 87%
    03:00 0°C° 0.1 mm 4 mps 718 mmHg 87%
    04:00 0°C° 0.1 mm 4 mps 718 mmHg 86%
    05:00 0°C° 0.1 mm 4 mps 718 mmHg 85%
    06:00 0°C° 0 mm 4 mps 718 mmHg 85%
    07:00 0°C° 0 mm 4 mps 718 mmHg 85%
    08:00 0°C° 0 mm 4 mps 718 mmHg 84%
    09:00 0°C° 0.1 mm 4 mps 718 mmHg 84%
    10:00 0°C° 0.1 mm 4 mps 718 mmHg 83%
    11:00 +1°C° 0.1 mm 4 mps 719 mmHg 82%
    12:00 +1°C° 0.1 mm 4 mps 718 mmHg 80%
    13:00 +1°C° 0.1 mm 4 mps 718 mmHg 78%
    14:00 +1°C° 0.1 mm 5 mps 718 mmHg 76%
    15:00 +1°C° 0 mm 4 mps 719 mmHg 78%
    16:00 +1°C° 0 mm 4 mps 719 mmHg 81%
    17:00 +1°C° 0 mm 3 mps 719 mmHg 83%
    18:00 +1°C° 0 mm 3 mps 719 mmHg 84%
    19:00 +1°C° 0 mm 3 mps 719 mmHg 85%
    20:00 -1°C° 0 mm 4 mps 719 mmHg 86%
    21:00 0°C° 0 mm 3 mps 719 mmHg 87%
    22:00 0°C° 0 mm 3 mps 719 mmHg 89%
    23:00 -1°C° 0 mm 3 mps 719 mmHg 90%

    26 October, Friday

    Time Temperature Precipitation Wind Pressure Humidity
    00:00 -1°C° 0 mm 3 mps 719 mmHg 92%
    01:00 -1°C° 0 mm 3 mps 719 mmHg 93%
    02:00 -1°C° 0 mm 3 mps 719 mmHg 94%
    03:00 -1°C° 0 mm 3 mps 720 mmHg 94%
    04:00 -1°C° 0 mm 3 mps 720 mmHg 93%
    05:00 -1°C° 0 mm 3 mps 720 mmHg 93%
    06:00 -1°C° 0 mm 3 mps 720 mmHg 92%
    07:00 -1°C° 0 mm 3 mps 721 mmHg 92%
    08:00 -2°C° 0 mm 4 mps 721 mmHg 91%
    09:00 -1°C° 0 mm 4 mps 721 mmHg 89%
    10:00 -1°C° 0 mm 4 mps 722 mmHg 87%
    11:00 0°C° 0 mm 4 mps 722 mmHg 85%
    12:00 0°C° 0 mm 4 mps 722 mmHg 83%
    13:00 0°C° 0 mm 4 mps 722 mmHg 81%
    14:00 +1°C° 0 mm 4 mps 723 mmHg 79%
    15:00 0°C° 0.1 mm 4 mps 723 mmHg 80%
    16:00 0°C° 0.1 mm 4 mps 723 mmHg 80%
    17:00 +1°C° 0.1 mm 3 mps 724 mmHg 80%
    18:00 +1°C° 0 mm 3 mps 724 mmHg 83%
    19:00 0°C° 0 mm 3 mps 724 mmHg 86%
    20:00 0°C° 0 mm 3 mps 724 mmHg 89%
    21:00 0°C° 0 mm 3 mps 725 mmHg 91%
    22:00 -1°C° 0 mm 3 mps 725 mmHg 92%
    23:00 -1°C° 0 mm 3 mps 725 mmHg 94%

    27 October, Saturday

    Time Temperature Precipitation Wind Pressure Humidity
    00:00 -1°C° 0 mm 3 mps 725 mmHg 94%
    01:00 -1°C° 0 mm 2 mps 725 mmHg 94%
    02:00 -1°C° 0 mm 2 mps 725 mmHg 94%
    03:00 -1°C° 0.1 mm 3 mps 724 mmHg 93%
    04:00 -1°C° 0.1 mm 3 mps 723 mmHg 92%
    05:00 0°C° 0.1 mm 3 mps 723 mmHg 91%
    06:00 -1°C° 1.2 mm 4 mps 722 mmHg 90%
    07:00 0°C° 1.2 mm 4 mps 721 mmHg 88%
    08:00 0°C° 1.2 mm 5 mps 720 mmHg 87%
    09:00 +1°C° 1.1 mm 5 mps 719 mmHg 88%
    10:00 +2°C° 1.1 mm 5 mps 719 mmHg 89%
    11:00 +2°C° 1.1 mm 5 mps 718 mmHg 89%
    12:00 +3°C° 0.7 mm 5 mps 718 mmHg 87%
    13:00 +3°C° 0.7 mm 5 mps 718 mmHg 85%
    14:00 +3°C° 0.7 mm 5 mps 718 mmHg 83%
    15:00 +3°C° 0.4 mm 5 mps 718 mmHg 83%
    16:00 +3°C° 0.4 mm 4 mps 719 mmHg 83%
    17:00 +3°C° 0.4 mm 4 mps 719 mmHg 83%
    18:00 +3°C° 0.1 mm 4 mps 719 mmHg 84%
    19:00 +2°C° 0.1 mm 3 mps 719 mmHg 85%
    20:00 +2°C° 0.1 mm 3 mps 720 mmHg 87%
    21:00 +1°C° 0.1 mm 3 mps 720 mmHg 89%
    22:00 +1°C° 0.1 mm 3 mps 721 mmHg 90%
    23:00 +1°C° 0.1 mm 3 mps 722 mmHg 92%

    28 October, Sunday

    Time Temperature Precipitation Wind Pressure Humidity
    00:00 +1°C° 0.1 mm 3 mps 723 mmHg 92%
    01:00 +1°C° 0.1 mm 3 mps 725 mmHg 92%
    02:00 +1°C° 0.1 mm 3 mps 726 mmHg 92%
    03:00 +1°C° 0.2 mm 3 mps 727 mmHg 91%
    04:00 0°C° 0.2 mm 3 mps 728 mmHg 91%
    05:00 0°C° 0.2 mm 3 mps 729 mmHg 90%
    06:00 0°C° 0 mm 3 mps 730 mmHg 90%
    07:00 0°C° 0 mm 3 mps 732 mmHg 90%
    08:00 0°C° 0 mm 3 mps 733 mmHg 91%
    09:00 0°C° 0.1 mm 3 mps 733 mmHg 89%
    10:00 +1°C° 0.1 mm 3 mps 734 mmHg 88%
    11:00 +1°C° 0.1 mm 3 mps 735 mmHg 86%
    12:00 +2°C° 0.1 mm 3 mps 736 mmHg 84%
    13:00 +2°C° 0.1 mm 3 mps 736 mmHg 81%
    14:00 +2°C° 0.1 mm 3 mps 737 mmHg 78%
    15:00 +1°C° 0 mm 3 mps 737 mmHg 81%
    16:00 +1°C° 0 mm 2 mps 737 mmHg 85%
    17:00 -1°C° 0 mm 2 mps 738 mmHg 88%
    18:00 -1°C° 0 mm 2 mps 738 mmHg 89%
    19:00 +1°C° 0 mm 1 mps 739 mmHg 90%
    20:00 0°C° 0 mm 1 mps 739 mmHg 91%
    21:00 0°C° 0 mm 1 mps 740 mmHg 92%
    22:00 0°C° 0 mm 1 mps 740 mmHg 92%
    23:00 0°C° 0 mm 1 mps 741 mmHg 93%

    29 October, Monday

    Time Temperature Precipitation Wind Pressure Humidity
    00:00 0°C° 0 mm 1 mps 741 mmHg 93%
    01:00 0°C° 0 mm 1 mps 741 mmHg 94%
    02:00 -1°C° 0 mm 1 mps 741 mmHg 94%
    03:00 -2°C° 0 mm 0 mps 741 mmHg 94%
    04:00 -2°C° 0 mm 0 mps 741 mmHg 94%
    05:00 -2°C° 0 mm 0 mps 741 mmHg 93%
    06:00 -1°C° 0 mm 0 mps 742 mmHg 92%
    07:00 0°C° 0 mm 1 mps 742 mmHg 91%
    08:00 0°C° 0 mm 1 mps 742 mmHg 90%
    09:00 +1°C° 0 mm 1 mps 742 mmHg 88%
    10:00 +1°C° 0 mm 1 mps 742 mmHg 85%
    11:00 +2°C° 0 mm 1 mps 742 mmHg 83%
    12:00 +1°C° 0.1 mm 2 mps 742 mmHg 84%
    13:00 +1°C° 0.1 mm 2 mps 742 mmHg 84%
    14:00 +1°C° 0.1 mm 2 mps 742 mmHg 84%
    15:00 +1°C° 0.3 mm 2 mps 742 mmHg 86%
    16:00 0°C° 0.3 mm 3 mps 742 mmHg 87%
    17:00 0°C° 0.3 mm 3 mps 741 mmHg 89%
    18:00 0°C° 0.5 mm 3 mps 741 mmHg 89%
    19:00 0°C° 0.5 mm 3 mps 741 mmHg 89%
    20:00 -1°C° 0.5 mm 4 mps 741 mmHg 89%
    21:00 -2°C° 0.9 mm 4 mps 740 mmHg 89%
    22:00 -2°C° 0.9 mm 4 mps 740 mmHg 89%
    23:00 -2°C° 0.9 mm 5 mps 740 mmHg 89%
    Show more